Hall Beach,

2:32 AM EDT on August 17, 2017 (GMT -0400)
Hall Beach

Weather History for CYUX - November, 2012

Change the Weather History Date:

Sunday, November 11, 2012

  Actual Average Record
Temperature  
Mean Temperature 5 °F -  
Max Temperature 10 °F -2 °F 28 °F (1998)
Min Temperature 0 °F -17 °F -23 °F (2000)
Degree Days  
Heating Degree Days 60    
Moisture  
Dew Point 4 °F    
Average Humidity 88    
Maximum Humidity 92    
Minimum Humidity 85    
Precipitation  
Precipitation 0.00 in 0.02 in - ()
Sea Level Pressure  
Sea Level Pressure 29.59 in    
Wind  
Wind Speed 10 mph ()    
Max Wind Speed 18 mph    
Max Gust Speed 22 mph    
Visibility 9.0 miles    
Events Snow    
Averages and records for this station are not official NWS values.
T = Trace of Precipitation, MM = Missing Value Source: Averaged Metar Reports

Daily Weather History Graph

Daily Weather History Graph

Search for Another Location

Airport or City:

Trip Planner

Search our weather history database for the weather conditions in past years. The results will help you decide how hot, cold, wet, or windy it might be!

Date:

Astronomy

Nov. 11, 2012 Rise Set
Actual Time 9:32 AM EST 2:44 PM EST
Civil Twilight 8:13 AM EST 4:03 PM EST
Nautical Twilight 6:58 AM EST 5:18 PM EST
Astronomical Twilight 5:50 AM EST 6:25 PM EST
Moon 5:28 AM EST (11/11) 2:11 PM EST (11/11)
Length of Visible Light 7h 50m
Length of Day
5h 11m
Waning Crescent, 7% of the Moon is Illuminated
Nov 11
Waning Crescent
Nov 13
New
Nov 20
First Quarter
Nov 28
Full
Dec 6
Last Quarter

Hourly Weather History & Observations

Time (EST) Temp. Windchill Dew Point Humidity Pressure Visibility Wind Dir Wind Speed Gust Speed Precip Events Conditions
12:00 AM 1.4 °F -13.5 °F -0.4 °F 92% 29.79 in 9.0 mi WSW 9.2 mph - N/A   Overcast
1:00 AM 1.4 °F -11.3 °F -2.2 °F 85% 29.78 in 9.0 mi WSW 6.9 mph - N/A   Overcast
2:00 AM -0.4 °F -12.0 °F -2.2 °F 92% 29.77 in 9.0 mi WSW 5.8 mph - N/A   Overcast
3:00 AM 1.4 °F - -2.2 °F 85% 29.75 in 9.0 mi WSW 2.3 mph - N/A   Mostly Cloudy
3:06 AM 1.4 °F -16.9 °F -2.2 °F 85% 29.74 in 9.0 mi WSW 13.8 mph - N/A   Mostly Cloudy
4:00 AM 1.4 °F -14.5 °F -0.4 °F 92% 29.72 in 9.0 mi SSW 10.4 mph - N/A   Scattered Clouds
4:18 AM 3.2 °F -12.2 °F -0.4 °F 85% 29.72 in 9.0 mi SSW 10.4 mph - N/A Snow Light Snow
4:57 AM 3.2 °F -12.2 °F 1.4 °F 92% 29.70 in 9.0 mi SSW 10.4 mph - N/A   Mostly Cloudy
5:00 AM 3.2 °F -12.2 °F 1.4 °F 92% 29.70 in 9.0 mi SSW 10.4 mph - N/A   Mostly Cloudy
6:00 AM 5.0 °F -11.6 °F 3.2 °F 92% 29.69 in 9.0 mi SSW 12.7 mph - N/A   Overcast
6:05 AM 5.0 °F -10.8 °F 3.2 °F 92% 29.68 in 9.0 mi SSW 11.5 mph - N/A Snow Light Snow
6:19 AM 6.8 °F -11.3 °F 5.0 °F 92% 29.68 in 9.0 mi SW 16.1 mph - N/A   Overcast
6:24 AM 6.8 °F -11.3 °F 5.0 °F 92% 29.67 in 9.0 mi SW 16.1 mph - N/A Snow Light Snow
6:36 AM 6.8 °F -10.0 °F 5.0 °F 92% 29.67 in 9.0 mi SW 13.8 mph 19.6 mph N/A   Overcast
6:59 AM 6.8 °F -7.8 °F 5.0 °F 92% 29.67 in 9.0 mi SSW 10.4 mph - N/A Snow Light Snow
9:00 AM 8.6 °F -8.3 °F 6.8 °F 92% 29.63 in 10.0 mi SW 15.0 mph - N/A   Ice Crystals
10:00 AM 10.4 °F -6.0 °F 6.8 °F 85% 29.61 in 10.0 mi SW 15.0 mph 21.9 mph N/A   Ice Crystals
10:44 AM 10.4 °F -6.6 °F 6.8 °F 85% 29.60 in 12.0 mi SW 16.1 mph - N/A Snow Light Snow
11:00 AM 10.4 °F -7.2 °F 6.8 °F 85% 29.60 in 12.0 mi SW 17.3 mph - N/A Snow Light Snow
11:32 AM 10.4 °F -4.1 °F 6.8 °F 85% 29.60 in 15.0 mi SW 11.5 mph - N/A   Mostly Cloudy
12:00 PM 10.4 °F -5.4 °F 6.8 °F 85% 29.59 in 15.0 mi SW 13.8 mph - N/A   Mostly Cloudy
1:00 PM 10.4 °F -6.0 °F 6.8 °F 85% 29.59 in 15.0 mi SW 15.0 mph - N/A   Overcast
2:00 PM 10.4 °F 0.8 °F 6.8 °F 85% 29.57 in 15.0 mi SW 5.8 mph - N/A   Overcast
3:00 PM 10.4 °F -6.0 °F 6.8 °F 85% 29.56 in 15.0 mi SSW 15.0 mph - N/A   Overcast
4:00 PM 8.6 °F -3.7 °F 5.0 °F 85% 29.55 in 15.0 mi SW 8.1 mph - N/A   Overcast
5:00 PM 8.6 °F -7.0 °F 5.0 °F 85% 29.52 in 15.0 mi SW 12.7 mph - N/A   Overcast
6:00 PM 8.6 °F -4.7 °F 5.0 °F 85% 29.52 in 15.0 mi West 9.2 mph - N/A   Overcast
6:22 PM 8.6 °F -4.7 °F 5.0 °F 85% 29.50 in 10.0 mi WSW 9.2 mph - N/A Snow Light Snow
7:00 PM 8.6 °F -7.0 °F 5.0 °F 85% 29.49 in 3.0 mi WSW 12.7 mph - N/A Snow Light Snow
7:07 PM 8.6 °F -6.3 °F 6.8 °F 92% 29.50 in 2.0 mi WSW 11.5 mph - N/A Snow Light Snow
7:15 PM 8.6 °F -7.0 °F 6.8 °F 92% 29.49 in 1.2 mi WSW 12.7 mph - N/A Snow Light Snow
8:00 PM 8.6 °F -6.3 °F 6.8 °F 92% 29.49 in 1.5 mi WSW 11.5 mph - N/A Snow Light Snow
8:29 PM 8.6 °F -8.3 °F 6.8 °F 92% 29.49 in 2.2 mi WSW 15.0 mph - N/A Snow Light Snow
8:39 PM 8.6 °F -7.7 °F 6.8 °F 92% 29.49 in 2.5 mi WSW 13.8 mph - N/A Snow Light Snow
8:44 PM 8.6 °F -8.3 °F 6.8 °F 92% 29.49 in 3.0 mi WSW 15.0 mph - N/A Snow Light Snow
9:00 PM 8.6 °F -8.9 °F 6.8 °F 92% 29.48 in 4.0 mi West 16.1 mph - N/A Snow Light Snow
9:30 PM 8.6 °F -9.5 °F 6.8 °F 92% 29.48 in 6.0 mi WSW 17.3 mph - N/A Snow Light Snow
10:00 PM 8.6 °F -8.3 °F 5.0 °F 85% 29.48 in 8.0 mi West 15.0 mph - N/A Snow Light Snow
10:46 PM 8.6 °F -10.0 °F 5.0 °F 85% 29.48 in 9.0 mi West 18.4 mph - N/A   Overcast
11:00 PM 8.6 °F -8.9 °F 5.0 °F 85% 29.48 in 9.0 mi West 16.1 mph - N/A   Overcast
11:04 PM 8.6 °F -8.3 °F 5.0 °F 85% 29.48 in 9.0 mi West 15.0 mph - N/A Snow Light Snow
11:21 PM 6.8 °F -11.8 °F 3.2 °F 85% 29.48 in 9.0 mi West 17.3 mph - N/A   Overcast